This is the latest recevied weather packets stored in our database for station/object K4OAM-13. If no packets are shown the sender has not sent any weather packets the latest 10 day(s).
| Time | Temp. | Humidity | Pressure | Rain* | Wind** | Luminosity | Snow |
|---|---|---|---|---|---|---|---|
| 1777912557 | 8.89° C | 77% | 1008.3 hPa | - | - | - | - |
| 1777911957 | 8.89° C | 75% | 1008.6 hPa | - | - | - | - |
| 1777911360 | 9.44° C | 75% | 1008.5 hPa | - | - | - | - |
| 1777910757 | 9.44° C | 74% | 1008.5 hPa | - | - | - | - |
| 1777910157 | 9.44° C | 73% | 1008.6 hPa | - | - | - | - |
| 1777909557 | 9.44° C | 73% | 1008.5 hPa | - | - | - | - |
| 1777908957 | 8.89° C | 75% | 1008.5 hPa | - | - | - | - |
| 1777908357 | 8.89° C | 77% | 1008.6 hPa | - | - | - | - |
| 1777907757 | 9.44° C | 76% | 1008.6 hPa | - | - | - | - |
| 1777907157 | 10° C | 73% | 1008.5 hPa | - | - | - | - |
| 1777906557 | 10° C | 73% | 1008.7 hPa | - | - | - | - |
| 1777905956 | 10° C | 71% | 1008.9 hPa | - | - | - | - |
| 1777905357 | 9.44° C | 74% | 1009.2 hPa | - | - | - | - |
| 1777904757 | 9.44° C | 71% | 1009 hPa | - | - | - | - |
| 1777904157 | 9.44° C | 72% | 1009.2 hPa | - | - | - | - |
| 1777903557 | 9.44° C | 71% | 1009.3 hPa | - | - | - | - |
| 1777902957 | 9.44° C | 72% | 1009.4 hPa | - | - | - | - |
| 1777902357 | 9.44° C | 72% | 1009.3 hPa | - | - | - | - |
| 1777901757 | 9.44° C | 70% | 1009.2 hPa | - | - | - | - |
| 1777901157 | 9.44° C | 70% | 1009.3 hPa | - | - | - | - |
| 1777900557 | 9.44° C | 70% | 1009.2 hPa | - | - | - | - |
| 1777899957 | 9.44° C | 71% | 1008.7 hPa | - | - | - | - |
| 1777899357 | 9.44° C | 72% | 1008.6 hPa | - | - | - | - |
| 1777898757 | 8.89° C | 74% | 1008.3 hPa | - | - | - | - |
| 1777898157 | 8.33° C | 75% | 1008.4 hPa | - | - | - | - |
* Rain since midnight (hover to see other rain measurements)
** Current wind speed in m/s (hover to see current wind gust speed)